TimeEDT,TemperatureF,Dew PointF,Humidity,Sea Level PressureIn,VisibilityMPH,Wind Direction,Wind SpeedMPH,Gust SpeedMPH,PrecipitationIn,Events,Conditions,WindDirDegrees,DateUTC
12:53 AM,75.9,66.0,71,30.04,10.0,SSW,3.5,-,N/A,,Clear,200,2013-06-17 04:53:00
1:53 AM,75.0,66.9,76,30.04,10.0,West,4.6,-,N/A,,Clear,260,2013-06-17 05:53:00
2:53 AM,73.9,68.0,82,30.04,10.0,West,6.9,-,0.00,Rain,Light Rain,260,2013-06-17 06:53:00
3:49 AM,71.6,69.8,94,30.09,5.0,WSW,9.2,-,0.10,Rain,Rain,240,2013-06-17 07:49:00
3:53 AM,72.0,69.1,91,30.06,5.0,SW,8.1,-,0.10,Rain,Rain,220,2013-06-17 07:53:00
4:07 AM,71.6,69.8,94,30.09,4.0,WSW,6.9,-,0.04,Rain,Heavy Rain,250,2013-06-17 08:07:00
4:53 AM,70.0,68.0,93,30.04,10.0,SSW,4.6,-,0.06,,Mostly Cloudy,200,2013-06-17 08:53:00
5:53 AM,70.0,66.9,90,30.03,10.0,WSW,5.8,-,N/A,,Partly Cloudy,250,2013-06-17 09:53:00
6:53 AM,69.1,66.9,93,30.04,10.0,SSW,3.5,-,N/A,,Partly Cloudy,200,2013-06-17 10:53:00
7:03 AM,69.8,66.2,88,30.07,10.0,SW,5.8,-,N/A,,Scattered Clouds,220,2013-06-17 11:03:00
7:12 AM,69.8,66.2,88,30.06,10.0,SSW,5.8,-,N/A,,Mostly Cloudy,200,2013-06-17 11:12:00
7:34 AM,69.8,68.0,94,30.07,9.0,SW,5.8,-,N/A,,Overcast,230,2013-06-17 11:34:00
7:53 AM,70.0,68.0,93,30.04,10.0,WSW,5.8,-,N/A,,Overcast,250,2013-06-17 11:53:00
8:38 AM,71.6,68.0,88,30.07,10.0,WSW,9.2,-,N/A,,Overcast,240,2013-06-17 12:38:00
8:53 AM,72.0,68.0,87,30.04,10.0,WSW,6.9,-,N/A,,Overcast,250,2013-06-17 12:53:00
9:15 AM,73.4,69.8,88,30.07,10.0,WSW,6.9,-,N/A,,Scattered Clouds,240,2013-06-17 13:15:00
9:53 AM,75.0,68.0,79,30.04,10.0,SW,8.1,-,N/A,,Mostly Cloudy,230,2013-06-17 13:53:00
10:29 AM,75.2,66.2,73,30.07,10.0,WSW,11.5,-,N/A,,Mostly Cloudy,250,2013-06-17 14:29:00
10:36 AM,75.2,66.2,73,30.06,10.0,West,11.5,-,N/A,,Mostly Cloudy,260,2013-06-17 14:36:00
10:53 AM,75.0,66.9,76,30.04,10.0,WSW,10.4,-,N/A,,Overcast,250,2013-06-17 14:53:00
11:13 AM,75.2,66.2,73,30.07,10.0,WSW,9.2,-,N/A,,Overcast,250,2013-06-17 15:13:00
11:53 AM,77.0,68.0,74,30.03,10.0,SW,6.9,-,N/A,,Mostly Cloudy,220,2013-06-17 15:53:00
12:53 PM,80.1,68.0,67,30.02,10.0,WSW,8.1,-,N/A,,Unknown,240,2013-06-17 16:53:00
1:53 PM,82.0,69.1,65,30.01,10.0,SW,8.1,-,N/A,,Scattered Clouds,220,2013-06-17 17:53:00
2:53 PM,84.0,70.0,63,29.99,10.0,SW,11.5,-,N/A,,Partly Cloudy,230,2013-06-17 18:53:00
3:26 PM,82.4,69.8,66,30.01,10.0,West,9.2,-,N/A,Thunderstorm,Overcast,260,2013-06-17 19:26:00
3:38 PM,73.4,66.2,78,30.02,1.8,NNW,20.7,31.1,0.09,Rain-Thunderstorm,Thunderstorms and Rain,330,2013-06-17 19:38:00
3:42 PM,69.8,66.2,88,30.02,1.2,NNW,18.4,31.1,0.12,Rain-Thunderstorm,Heavy Thunderstorms and Rain,340,2013-06-17 19:42:00
3:48 PM,71.6,66.2,83,30.02,2.0,North,11.5,27.6,0.12,Rain-Thunderstorm,Light Thunderstorms and Rain,350,2013-06-17 19:48:00
3:53 PM,71.1,66.9,87,29.99,8.0,North,6.9,-,0.13,Rain-Thunderstorm,Light Thunderstorms and Rain,350,2013-06-17 19:53:00
4:09 PM,73.4,66.2,78,30.00,10.0,West,3.5,-,0.00,Rain-Thunderstorm,Light Rain,280,2013-06-17 20:09:00
4:45 PM,75.2,69.8,83,30.00,10.0,South,3.5,-,0.00,,Partly Cloudy,190,2013-06-17 20:45:00
4:53 PM,75.9,69.1,79,29.98,10.0,Variable,3.5,-,0.00,,Partly Cloudy,0,2013-06-17 20:53:00
5:25 PM,80.6,69.8,70,29.99,10.0,Calm,Calm,-,N/A,Thunderstorm,Clear,0,2013-06-17 21:25:00
5:40 PM,80.6,69.8,70,29.99,10.0,Variable,3.5,-,N/A,,Clear,0,2013-06-17 21:40:00
5:53 PM,80.1,68.0,67,29.96,10.0,Calm,Calm,-,N/A,,Clear,0,2013-06-17 21:53:00
6:53 PM,81.0,69.1,67,29.96,10.0,SW,3.5,-,N/A,,Clear,230,2013-06-17 22:53:00
7:53 PM,80.1,70.0,71,29.96,10.0,SSE,4.6,-,N/A,,Clear,150,2013-06-17 23:53:00
8:53 PM,78.1,71.1,79,29.96,10.0,SSE,6.9,-,N/A,,Clear,150,2013-06-18 00:53:00
9:39 PM,78.8,71.6,78,29.99,10.0,South,9.2,-,N/A,Thunderstorm,Mostly Cloudy,190,2013-06-18 01:39:00
9:53 PM,77.0,71.1,82,29.97,10.0,SW,8.1,-,N/A,Thunderstorm,Thunderstorm,220,2013-06-18 01:53:00
10:07 PM,75.2,69.8,83,30.02,9.0,NW,15.0,21.9,0.02,Rain-Thunderstorm,Light Thunderstorms and Rain,320,2013-06-18 02:07:00
10:12 PM,71.6,68.0,88,30.02,1.5,North,19.6,24.2,0.22,Rain-Thunderstorm,Heavy Thunderstorms and Rain,360,2013-06-18 02:12:00
10:23 PM,69.8,68.0,94,30.03,2.0,North,9.2,-,0.44,Rain-Thunderstorm,Heavy Thunderstorms and Rain,350,2013-06-18 02:23:00
10:26 PM,71.6,66.2,83,30.03,3.0,North,9.2,-,0.44,Rain-Thunderstorm,Light Thunderstorms and Rain,10,2013-06-18 02:26:00
10:33 PM,71.6,66.2,83,30.02,10.0,North,5.8,-,0.45,Rain-Thunderstorm,Light Thunderstorms and Rain,350,2013-06-18 02:33:00
10:36 PM,73.4,66.2,78,30.02,10.0,North,4.6,-,0.45,Rain,Light Rain,350,2013-06-18 02:36:00
10:53 PM,71.1,66.9,87,29.99,10.0,Calm,Calm,-,0.45,,Mostly Cloudy,0,2013-06-18 02:53:00
11:41 PM,71.6,68.0,88,30.02,10.0,SE,3.5,-,N/A,,Overcast,130,2013-06-18 03:41:00
11:53 PM,72.0,69.1,91,29.99,10.0,Calm,Calm,-,N/A,,Overcast,0,2013-06-18 03:53:00